Location: Esp�s Alto
(42.4476°N, 0.5876°E)
Time: 20:26:59
(UTC+00:00)

Milstar 3 - Pass Details

Date: 22 October 2019
Orbit: 1111 x 5134 km, 28.2° (Epoch: 06 September)

Event Time Altitude Azimuth Distance (km) Brightness Sun altitude
Exits shadow 05:27:44 - 237° (WSW) 3,853 5.1 -10.0°
Reaches altitude 10° 05:30:15 10° 227° (SW) 3,024 4.7 -9.6°
Maximum altitude 05:35:40 25° 173° (S) 2,073 4.4 -8.6°
Drops below altitude 10° 05:41:26 10° 119° (ESE) 3,240 6.5 -7.5°
Sets 05:45:13 0° 107° (ESE) 4,528 8.3 -6.8°
